| time (UTC) | temp F | wind direction | speed knots | gust knots | rain 1hr in | rain 24hr in | rain mn in | humidity % | barometer mb |
| 20260508135954 | 55 | 347 | 2.6 | 6.1 | 0.00 | 0.00 | 0.00 | 51 | 1014.1 |
| 20260508134450 | 56 | 309 | 2.6 | 9.6 | 0.00 | 0.00 | 0.00 | 49 | 1014.2 |
| 20260508132950 | 55 | 309 | 3.5 | 7.0 | 0.00 | 0.00 | 0.00 | 57 | 1014.4 |
| 20260508131451 | 54 | 318 | 1.7 | 6.1 | 0.00 | 0.00 | 0.00 | 59 | 1014.5 |
| 20260508125954 | 54 | 298 | 2.6 | 7.0 | 0.00 | 0.00 | 0.00 | 61 | 1014.5 |
| 20260508124450 | 53 | 314 | 1.7 | 5.2 | 0.00 | 0.00 | 0.00 | 65 | 1014.5 |
| 20260508122951 | 52 | 316 | 0.0 | 0.0 | 0.00 | 0.00 | 0.00 | 69 | 1014.5 |
| 20260508115954 | 50 | 340 | 0.0 | 4.3 | 0.00 | 0.00 | 0.00 | 76 | 1014.2 |
| 20260508114451 | 49 | 68 | 0.0 | 0.9 | 0.00 | 0.00 | 0.00 | 80 | 1014.3 |
| 20260508112950 | 47 | 11 | 0.0 | 0.9 | 0.00 | 0.00 | 0.00 | 82 | 1014.1 |
| 20260508111451 | 46 | 71 | 0.0 | 0.0 | 0.00 | 0.00 | 0.00 | 84 | 1013.9 |
| 20260508105954 | 44 | 71 | 0.0 | 0.0 | 0.00 | 0.00 | 0.00 | 86 | 1013.9 |
| 20260508104450 | 43 | 71 | 0.0 | 0.0 | 0.00 | 0.00 | 0.00 | 86 | 1013.6 |
| 20260508102951 | 42 | 71 | 0.0 | 0.0 | 0.00 | 0.00 | 0.00 | 85 | 1013.5 |
| 20260508101450 | 42 | 71 | 0.0 | 0.0 | 0.00 | 0.00 | 0.00 | 84 | 1013.5 |
| 20260508095953 | 42 | 71 | 0.0 | 0.0 | 0.00 | 0.00 | 0.00 | 82 | 1013.3 |
| 20260508094450 | 44 | 71 | 0.0 | 0.0 | 0.00 | 0.00 | 0.00 | 82 | 1013.0 |
| 20260508092950 | 44 | 71 | 0.0 | 0.9 | 0.00 | 0.00 | 0.00 | 82 | 1013.0 |
| 20260508085954 | 44 | 66 | 0.0 | 0.9 | 0.00 | 0.00 | 0.00 | 80 | 1013.1 |
| 20260508084451 | 45 | 68 | 0.0 | 0.9 | 0.00 | 0.00 | 0.00 | 78 | 1013.0 |
| 20260508082950 | 46 | 76 | 0.9 | 4.3 | 0.00 | 0.00 | 0.00 | 78 | 1012.7 |
| 20260508081451 | 47 | 64 | 1.7 | 5.2 | 0.00 | 0.00 | 0.00 | 77 | 1012.5 |
| 20260508074451 | 48 | 62 | 4.3 | 7.8 | 0.00 | 0.00 | 0.00 | 75 | 1012.1 |
| 20260508072950 | 48 | 70 | 3.5 | 8.7 | 0.00 | 0.00 | 0.00 | 74 | 1012.0 |
| 20260508071451 | 49 | 63 | 4.3 | 9.6 | 0.00 | 0.00 | 0.00 | 73 | 1011.9 |
| 20260508065955 | 50 | 61 | 5.2 | 8.7 | 0.00 | 0.00 | 0.00 | 71 | 1011.8 |
| 20260508064450 | 51 | 33 | 6.1 | 12.2 | 0.00 | 0.00 | 0.00 | 69 | 1011.6 |
| 20260508062951 | 51 | 49 | 4.3 | 9.6 | 0.00 | 0.00 | 0.00 | 68 | 1011.2 |
| 20260508061450 | 51 | 39 | 3.5 | 9.6 | 0.00 | 0.00 | 0.00 | 68 | 1011.0 |
| 20260508055953 | 51 | 47 | 0.9 | 4.3 | 0.00 | 0.00 | 0.00 | 74 | 1010.8 |
| 20260508054450 | 50 | 45 | 0.9 | 4.3 | 0.00 | 0.00 | 0.00 | 79 | 1010.5 |
| 20260508052951 | 50 | 321 | 0.9 | 2.6 | 0.00 | 0.00 | 0.00 | 80 | 1010.3 |
| 20260508051451 | 50 | 330 | 0.9 | 2.6 | 0.00 | 0.00 | 0.00 | 80 | 1010.2 |
| 20260508044451 | 51 | 316 | 1.7 | 3.5 | 0.00 | 0.00 | 0.00 | 78 | 1010.0 |
| 20260508042952 | 51 | 313 | 0.9 | 1.7 | 0.00 | 0.00 | 0.00 | 78 | 1009.8 |
| 20260508041455 | 51 | 306 | 0.9 | 2.6 | 0.00 | 0.00 | 0.00 | 77 | 1009.8 |
| 20260508035956 | 52 | 294 | 0.9 | 3.5 | 0.00 | 0.00 | 0.00 | 76 | 1009.7 |
| 20260508034452 | 52 | 299 | 0.9 | 2.6 | 0.00 | 0.00 | 0.00 | 76 | 1009.7 |
| 20260508032951 | 52 | 311 | 0.9 | 2.6 | 0.00 | 0.00 | 0.00 | 76 | 1009.7 |
| 20260508031451 | 52 | 300 | 0.9 | 2.6 | 0.00 | 0.00 | 0.00 | 75 | 1009.8 |
| 20260508024451 | 53 | 313 | 3.5 | 5.2 | 0.00 | 0.00 | 0.00 | 73 | 1009.7 |
| 20260508021452 | 53 | 313 | 2.6 | 5.2 | 0.00 | 0.00 | 0.00 | 70 | 1009.7 |
| 20260508015955 | 54 | 319 | 2.6 | 7.0 | 0.00 | 0.00 | 0.00 | 68 | 1009.6 |
| 20260508012951 | 52 | 132 | 0.0 | 0.9 | 0.00 | 0.00 | 0.00 | 65 | 1009.2 |
| 20260508011451 | 51 | 132 | 0.0 | 0.0 | 0.00 | 0.00 | 0.00 | 65 | 1008.9 |
| 20260508004453 | 52 | 132 | 0.0 | 0.9 | 0.00 | 0.00 | 0.00 | 62 | 1008.6 |
| 20260508002952 | 53 | 132 | 0.0 | 0.0 | 0.00 | 0.00 | 0.00 | 61 | 1008.5 |
| 20260508001451 | 54 | 132 | 0.0 | 0.0 | 0.00 | 0.00 | 0.00 | 59 | 1008.3 |
| 20260507235954 | 56 | 77 | 0.0 | 0.0 | 0.00 | 0.00 | 0.00 | 57 | 1008.3 |
| 20260507234451 | 58 | 77 | 0.0 | 0.9 | 0.00 | 0.00 | 0.00 | 53 | 1008.1 |
| 20260507232952 | 60 | 77 | 0.0 | 1.7 | 0.00 | 0.00 | 0.00 | 46 | 1008.0 |
| 20260507231451 | 60 | 77 | 1.7 | 3.5 | 0.00 | 0.00 | 0.00 | 45 | 1008.0 |
| 20260507225956 | 61 | 82 | 2.6 | 4.3 | 0.00 | 0.00 | 0.00 | 45 | 1008.1 |
| 20260507222951 | 61 | 72 | 3.5 | 8.7 | 0.00 | 0.00 | 0.00 | 47 | 1007.9 |
| 20260507221451 | 60 | 63 | 0.9 | 3.5 | 0.00 | 0.00 | 0.00 | 45 | 1007.9 |
| 20260507215955 | 60 | 34 | 1.7 | 5.2 | 0.00 | 0.00 | 0.00 | 45 | 1008.0 |
| 20260507214451 | 62 | 79 | 3.5 | 10.4 | 0.00 | 0.00 | 0.00 | 43 | 1008.1 |
| 20260507212951 | 63 | 125 | 1.7 | 7.0 | 0.00 | 0.00 | 0.00 | 44 | 1008.2 |
| 20260507202951 | 64 | 37 | 2.6 | 9.6 | 0.00 | 0.00 | 0.00 | 43 | 1007.9 |
| 20260507201452 | 62 | 32 | 3.5 | 11.3 | 0.00 | 0.00 | 0.00 | 44 | 1007.9 |
| 20260507195955 | 62 | 88 | 5.2 | 13.9 | 0.00 | 0.00 | 0.00 | 45 | 1008.1 |
| 20260507194451 | 63 | 40 | 2.6 | 7.0 | 0.00 | 0.00 | 0.00 | 42 | 1008.2 |
| 20260507192952 | 62 | 56 | 3.5 | 11.3 | 0.00 | 0.00 | 0.00 | 46 | 1008.4 |
| 20260507191451 | 61 | 87 | 6.1 | 12.2 | 0.00 | 0.00 | 0.00 | 47 | 1008.6 |
| 20260507185954 | 62 | 117 | 2.6 | 6.1 | 0.00 | 0.00 | 0.00 | 50 | 1008.6 |
| 20260507184452 | 62 | 25 | 2.6 | 7.0 | 0.00 | 0.00 | 0.00 | 46 | 1009.0 |
| 20260507182952 | 62 | 313 | 2.6 | 7.0 | 0.00 | 0.00 | 0.00 | 49 | 1009.2 |
| 20260507175955 | 60 | 70 | 5.2 | 12.2 | 0.00 | 0.00 | 0.00 | 49 | 1009.1 |
| 20260507174451 | 60 | 328 | 4.3 | 10.4 | 0.00 | 0.00 | 0.00 | 53 | 1009.3 |
| 20260507172952 | 59 | 24 | 5.2 | 13.9 | 0.00 | 0.00 | 0.00 | 53 | 1009.5 |
| 20260507171451 | 59 | 104 | 6.1 | 13.0 | 0.00 | 0.00 | 0.00 | 51 | 1009.9 |
| 20260507165954 | 59 | 41 | 3.5 | 7.8 | 0.00 | 0.00 | 0.00 | 53 | 1010.1 |
| 20260507164451 | 59 | 72 | 4.3 | 11.3 | 0.00 | 0.00 | 0.00 | 53 | 1010.3 |
| 20260507162952 | 58 | 92 | 6.1 | 10.4 | 0.00 | 0.00 | 0.00 | 53 | 1010.4 |
| 20260507161451 | 58 | 67 | 7.0 | 13.0 | 0.00 | 0.00 | 0.00 | 53 | 1010.6 |
| 20260507155955 | 57 | 112 | 6.1 | 12.2 | 0.00 | 0.00 | 0.00 | 58 | 1010.8 |
| 20260507152951 | 55 | 96 | 6.1 | 11.3 | 0.00 | 0.00 | 0.00 | 61 | 1011.3 |
| 20260507151451 | 55 | 81 | 4.3 | 10.4 | 0.00 | 0.00 | 0.00 | 63 | 1011.4 |
| 20260507145955 | 54 | 77 | 3.5 | 7.8 | 0.00 | 0.00 | 0.00 | 67 | 1011.6 |
| 20260507144452 | 54 | 75 | 4.3 | 9.6 | 0.00 | 0.00 | 0.00 | 65 | 1011.8 |
| 20260507142952 | 53 | 59 | 4.3 | 8.7 | 0.00 | 0.00 | 0.00 | 70 | 1012.2 |
| 20260507141451 | 53 | 77 | 4.3 | 9.6 | 0.00 | 0.00 | 0.00 | 71 | 1012.1 |